[[{"header":{"parameterUnit":"m.s-1","parameterCategory":1,"la1":30.2991,"la2":30.254,"lo1":-89.0895,"lo2":-89.0444,"dy":0.0017,"dx":0.0017,"nx":28,"ny":28,"refTime":"2025-03-28T03:00:00:Z","depth":0,"parameterNumber":2,"parameterNumberName":"U-component_of_WINDS"},"data":[0,0,0,0,0,0,0,0,0,0,0,0,0,0,0,0,0,0,0,0,0,0,0,0,0,0,0,0,0,0,0,0,0,0,0,0,0,0,0,0,0,0,0,0,0,0,0,0,0,0,0,0,0,0,0,0,0,0,-5.9734,-5.9733,0,-5.9663,-5.9662,-5.9662,-5.9514,-5.9512,-5.9509,-5.9506,-5.9438,-5.9438,-5.9439,0,0,0,0,0,0,0,0,0,0,0,0,0,-5.9747,-5.9748,-5.9734,-5.9733,-5.9732,-5.9663,-5.9662,-5.9661,-5.9515,-5.9511,-5.9508,-5.9504,-5.9437,-5.9438,-5.944,0,0,0,0,0,0,0,0,0,0,0,0,0,-5.9716,-5.9748,-5.9734,-5.9651,-5.9643,-5.9664,-5.9662,-5.9661,-5.9516,-5.9511,-5.9507,-5.9503,-5.9437,-5.9438,-5.944,-5.9537,0,0,-5.9444,-5.9445,0,0,0,0,0,0,0,0,-5.9718,-5.9715,-5.9664,-5.9657,-5.9647,-5.9593,-5.9642,-5.962,-5.9517,-5.9564,-5.9506,-5.9501,-5.9493,-5.949,-5.9486,-5.9534,-5.9531,-5.9444,-5.9445,-5.9446,-5.9446,0,0,0,0,0,0,0,-5.972,-5.9718,-5.9706,-5.9663,-5.9653,-5.9619,-5.9609,-5.9637,-5.9555,-5.956,-5.9549,-5.9542,-5.9488,-5.9485,-5.9484,-5.953,-5.9444,-5.9445,-5.9446,-5.9447,-5.9654,-5.9659,0,0,0,0,0,0,-5.9734,-5.972,-5.9708,-5.9704,-5.9672,-5.9622,-5.9611,-5.9615,-5.9554,-5.954,-5.9546,-5.9536,-5.9485,-5.9482,-5.9481,-5.9589,-5.9446,-5.9447,-5.9448,-5.965,-5.9656,-5.9661,0,0,0,0,0,0,-5.9735,-5.9734,-5.9711,-5.9709,-5.9704,-5.9626,-5.9632,-5.9616,-5.9613,-5.9543,-5.9529,-5.9558,-5.9481,-5.9479,-5.9524,-5.9585,-5.9448,-5.9449,-5.9644,-5.9652,-5.9658,-5.9809,0,0,0,0,0,0,-5.9736,-5.9735,-5.977,-5.9711,-5.9704,-5.9755,-5.9636,-5.9618,-5.9615,-5.9601,-5.9551,-5.9538,-5.9478,-5.9523,-5.9525,-5.9585,-5.945,-5.9638,-5.9648,-5.9656,-5.9798,-5.9821,-5.984,0,0,0,0,0,-5.9737,-5.9817,-5.9773,-5.9772,-5.9746,-5.9758,-5.9755,-5.9682,-5.9621,-5.9656,-5.9612,-5.954,-5.9579,-5.9529,-5.953,-5.9591,-5.9634,-5.9645,-5.9655,-5.9789,-5.9816,-5.9839,0,0,0,0,0,0,-5.9886,-5.9807,-5.9758,-5.9821,-5.9797,-5.9733,-5.9775,-5.9713,-5.9707,-5.9694,-5.9606,-5.9596,-5.9653,-5.9627,-5.9572,-5.9682,-5.9595,-5.9607,-5.9696,-5.9721,-5.9742,-5.9745,-5.9451,0,0,0,0,0,-5.9926,-5.9941,-5.9872,-5.9935,-5.9926,-5.9853,-5.9856,-5.9802,-5.9775,-5.9764,-5.9723,-5.97,-5.9707,-5.9713,-5.9716,-5.9795,-5.9782,-5.9838,-5.9859,-5.9876,-5.9886,-5.9925,-5.9949,-5.9695,-5.9695,-5.9695,0,0,-6.001,-5.9969,-5.9983,-5.9964,-5.9939,-5.9958,-5.9846,-5.987,-5.9883,-5.9768,-5.9807,-5.9777,-5.9746,-5.9809,-5.9834,-5.9788,-5.9954,-5.9889,-5.9904,-5.9904,-5.9938,-5.9962,-5.9984,-5.9702,-5.9701,-5.97,0,0,-6.017,-6.0141,-6.0189,-6.0167,-6.0131,-6.0082,-6.0095,-6.004,-6.0015,-6.0053,-5.9967,-5.9983,-5.9997,-5.9978,-5.997,-6.0126,-6.006,-6.013,-6.0236,-6.0275,-6.0295,-6.0313,-6.0366,-6.0387,-6.0141,-6.0141,-6.0142,0,-6.0278,-6.03,-6.0222,-6.0251,-6.0245,-6.0142,-6.0191,-6.0174,-6.0142,-6.014,-6.009,-6.0105,-6.0077,-6.0133,-6.0171,-6.017,-6.018,-6.0133,-6.0299,-6.0315,-6.033,-6.038,-6.0401,-6.015,-6.0149,-6.0148,-6.0147,0,-6.0435,-6.0452,-6.0496,-6.0465,-6.0465,-6.0504,-6.0433,-6.0442,-6.039,-6.0348,-6.0388,-6.0351,-6.0344,-6.0354,-6.0304,-6.0404,-6.0376,-6.0314,-6.0224,-6.0364,-6.041,-6.0429,-6.0162,-6.0159,-6.0157,-6.0154,0,0,-6.0684,-6.061,-6.0627,-6.0612,-6.0566,-6.0579,-6.0615,-6.0606,-6.0616,-6.0598,-6.0625,-6.0641,-6.0582,-6.0574,-6.0521,-6.0556,-6.068,-6.0489,-6.0487,-6.0524,-6.0786,-6.0831,-6.0855,-6.0637,-6.0641,-6.0644,-6.0788,0,-6.0831,-6.0885,-6.0816,-6.0886,-6.0901,-6.0805,-6.0836,-6.0812,-6.0774,-6.0783,-6.0742,-6.0753,-6.0677,-6.0671,-6.0701,-6.0659,-6.0731,-6.0648,-6.0661,-6.0663,-6.0669,-6.0879,-6.0927,-6.1065,-6.0806,-6.0809,-6.0811,0,-6.1009,-6.0999,-6.107,-6.1019,-6.1023,-6.1052,-6.1039,-6.1048,-6.102,-6.099,-6.0982,-6.0918,-6.0951,-6.0867,-6.091,-6.0855,-6.0857,-6.0838,-6.0841,-6.0837,-6.0743,-6.0878,-6.1107,-6.1127,-6.0839,-6.0837,-6.0835,0,-6.1181,-6.1185,-6.1227,-6.1218,-6.1161,-6.1183,-6.1161,-6.1128,-6.1128,-6.1118,-6.1117,-6.1112,-6.1109,-6.1107,-6.1044,-6.0989,-6.1096,-6.1006,-6.1071,-6.1073,-6.1095,-6.1094,-6.1325,-6.1102,-6.1102,-6.1102,-6.1101,0,-6.1351,-6.1398,-6.1303,-6.1329,-6.1379,-6.1302,-6.1354,-6.1322,-6.1294,-6.1312,-6.1231,-6.1251,-6.1168,-6.1179,-6.1131,-6.1174,-6.1174,-6.1151,-6.1137,-6.1156,-6.1159,-6.1154,-6.1142,-6.1107,-6.1106,-6.1105,-6.1104,0,-6.155,-6.1489,-6.1528,-6.1471,-6.1458,-6.1497,-6.1449,-6.1471,-6.1429,-6.1454,-6.1456,-6.139,-6.1399,-6.1337,-6.1336,-6.1304,-6.1369,-6.134,-6.1378,-6.1368,-6.1436,-6.1429,-6.1669,-6.1696,-6.1459,-6.1462,-6.1464,0,-6.166,-6.1694,-6.164,-6.1646,-6.1628,-6.1639,-6.1638,-6.1565,-6.1567,-6.1538,-6.1564,-6.1567,-6.1564,-6.1584,-6.1537,-6.1536,-6.1504,-6.1589,-6.1503,-6.1522,-6.1503,-6.15,-6.1503,-6.1605,-6.1608,-6.1611,-6.1613,0,-6.1863,-6.1832,-6.1832,-6.1824,-6.1825,-6.1815,-6.1799,-6.181,-6.173,-6.1737,-6.1745,-6.1744,-6.1742,-6.1745,-6.1735,-6.1712,-6.165,-6.1641,-6.1655,-6.1674,-6.1693,-6.1681,-6.1423,-6.1635,-6.1632,-6.1631,-6.163,-6.1629,-6.2019,-6.2044,-6.201,-6.2014,-6.1995,-6.1983,-6.2001,-6.1961,-6.1966,-6.1957,-6.1915,-6.193,-6.1902,-6.1881,-6.1866,-6.1878,-6.1837,-6.1859,-6.1864,-6.187,-6.1881,-6.1694,-6.1876,-6.1875,-6.1875,-6.1874,-6.1873,0,-6.2215,-6.2189,-6.2194,-6.2174,-6.2178,-6.2119,-6.21,-6.2107,-6.2121,-6.21,-6.2099,-6.2109,-6.2112,-6.2066,-6.2064,-6.2082,-6.2053,-6.2084,-6.208,-6.2076,-6.1918,-6.1904,-6.2107,-6.2107,-6.2107,-6.2107,-6.2107,-6.2107,-6.2317,-6.2356,-6.2321,-6.235,-6.2323,-6.2337,-6.2331,-6.232,-6.2302,-6.2316,-6.2318,-6.2287,-6.2256,-6.2251,-6.2252,-6.2239,-6.2241,-6.2281,-6.2257,-6.211,-6.2087,-6.2066,-6.2052,-6.2282,-6.2283,-6.2413,-6.2415,-6.2416]},{"header":{"parameterUnit":"m.s-1","parameterCategory":1,"la1":30.2991,"la2":30.254,"lo1":-89.0895,"lo2":-89.0444,"dy":0.0017,"dx":0.0017,"nx":28,"ny":28,"refTime":"2025-03-28T03:00:00:Z","depth":0,"parameterNumber":3,"parameterNumberName":"V-component_of_WINDS"},"data":[0,0,0,0,0,0,0,0,0,0,0,0,0,0,0,0,0,0,0,0,0,0,0,0,0,0,0,0,0,0,0,0,0,0,0,0,0,0,0,0,0,0,0,0,0,0,0,0,0,0,0,0,0,0,0,0,0,0,1.7047,1.7049,0,1.7252,1.7255,1.7257,1.7302,1.7301,1.73,1.7298,1.7514,1.752,1.7528,0,0,0,0,0,0,0,0,0,0,0,0,0,1.6699,1.6705,1.7047,1.7049,1.7052,1.7252,1.7255,1.7258,1.7303,1.7301,1.7299,1.7297,1.7511,1.752,1.7528,0,0,0,0,0,0,0,0,0,0,0,0,0,1.6872,1.6707,1.7046,1.7098,1.7105,1.7252,1.7255,1.7259,1.7303,1.7301,1.7299,1.7297,1.7508,1.7519,1.7529,1.764,0,0,1.7562,1.7567,0,0,0,0,0,0,0,0,1.6862,1.6885,1.7088,1.7095,1.7103,1.7249,1.7211,1.7387,1.7304,1.7228,1.7298,1.7295,1.7428,1.7445,1.7489,1.765,1.7659,1.7563,1.7569,1.7574,1.7577,0,0,0,0,0,0,0,1.685,1.6876,1.7128,1.7091,1.71,1.7113,1.7135,1.7245,1.7338,1.7235,1.7238,1.7262,1.7431,1.7478,1.7494,1.7663,1.7563,1.7572,1.7579,1.7583,1.7929,1.7932,0,0,0,0,0,0,1.6828,1.6866,1.7122,1.7135,1.6974,1.7121,1.7146,1.7205,1.7337,1.7355,1.7263,1.7263,1.7461,1.7481,1.7502,1.7643,1.7574,1.7584,1.759,1.7926,1.793,1.7933,0,0,0,0,0,0,1.682,1.685,1.7114,1.7001,1.7036,1.713,1.7195,1.721,1.7257,1.7359,1.7376,1.7294,1.746,1.7487,1.7606,1.7651,1.7589,1.7598,1.7923,1.7927,1.7931,1.7925,0,0,0,0,0,0,1.681,1.6847,1.6889,1.7002,1.7041,1.7213,1.7198,1.7216,1.7275,1.7276,1.7392,1.7409,1.746,1.759,1.7616,1.7665,1.7607,1.7919,1.7925,1.793,1.7922,1.7929,1.7934,0,0,0,0,0,1.6798,1.688,1.6891,1.6922,1.7095,1.7215,1.7238,1.7294,1.7278,1.7322,1.7388,1.7405,1.7641,1.7601,1.7632,1.7684,1.7917,1.7923,1.7929,1.7919,1.7927,1.7934,0,0,0,0,0,0,1.6772,1.6895,1.6909,1.703,1.7111,1.7222,1.728,1.73,1.739,1.7388,1.7454,1.748,1.7596,1.7652,1.7605,1.78,1.7779,1.7791,1.776,1.7769,1.7775,1.7761,1.7616,0,0,0,0,0,1.6779,1.6864,1.6968,1.7065,1.7105,1.7185,1.7239,1.7275,1.7363,1.7398,1.7473,1.7559,1.7653,1.7713,1.7805,1.7929,1.7957,1.798,1.7986,1.7991,1.8003,1.8076,1.8089,1.7953,1.7953,1.7953,0,0,1.6797,1.6875,1.6925,1.7062,1.7129,1.7218,1.7214,1.7307,1.7375,1.7413,1.7531,1.7588,1.7689,1.7812,1.7869,1.7862,1.8046,1.7999,1.8002,1.8011,1.8084,1.8096,1.8108,1.7958,1.7957,1.7956,0,0,1.6877,1.6942,1.7032,1.7099,1.7201,1.7253,1.7275,1.7383,1.7422,1.7541,1.7572,1.7654,1.7813,1.7884,1.7942,1.8048,1.8069,1.8076,1.8111,1.8181,1.8192,1.8202,1.8244,1.8258,1.8086,1.8086,1.8086,0,1.6887,1.7021,1.7075,1.7168,1.7229,1.7265,1.7358,1.7421,1.7548,1.759,1.7578,1.778,1.785,1.7992,1.8018,1.8062,1.8091,1.8065,1.8185,1.8196,1.8206,1.8247,1.8262,1.8087,1.8086,1.8086,1.8086,0,1.703,1.7123,1.7183,1.7304,1.737,1.7462,1.7533,1.7594,1.7624,1.7679,1.7801,1.7886,1.7997,1.8032,1.8062,1.8179,1.8172,1.8172,1.8152,1.8219,1.8259,1.8274,1.8087,1.8087,1.8087,1.8087,0,0,1.7102,1.7251,1.7273,1.7329,1.7444,1.7517,1.7612,1.7719,1.7772,1.7858,1.7942,1.8075,1.8077,1.8142,1.818,1.8241,1.8325,1.8235,1.8238,1.8252,1.8464,1.8466,1.8483,1.8338,1.8341,1.8343,1.8457,0,1.7198,1.7367,1.7419,1.7562,1.765,1.7685,1.7768,1.7849,1.7902,1.7986,1.8045,1.8141,1.8133,1.8173,1.8235,1.8302,1.8369,1.8294,1.842,1.8424,1.8398,1.8503,1.8506,1.8609,1.8472,1.8475,1.8477,0,1.7334,1.7422,1.7573,1.7678,1.7717,1.779,1.7894,1.7972,1.8065,1.81,1.8172,1.8206,1.8309,1.828,1.8425,1.8372,1.8427,1.8467,1.8473,1.849,1.8457,1.8528,1.8642,1.8659,1.8501,1.8499,1.8497,0,1.7376,1.7532,1.7643,1.769,1.7814,1.7866,1.792,1.801,1.8072,1.8163,1.8204,1.8306,1.8363,1.8441,1.8503,1.8475,1.8644,1.8619,1.8679,1.8677,1.8716,1.8714,1.8845,1.8743,1.8743,1.8743,1.8742,0,1.7482,1.7574,1.7664,1.7733,1.7838,1.7897,1.8,1.8057,1.8137,1.8219,1.8255,1.8332,1.8406,1.8494,1.8542,1.8657,1.8681,1.8714,1.8727,1.8714,1.871,1.8754,1.875,1.8747,1.8746,1.8745,1.8745,0,1.7548,1.7612,1.7737,1.7843,1.7873,1.7946,1.8039,1.8109,1.8162,1.8266,1.8294,1.838,1.8485,1.8552,1.8686,1.8718,1.8846,1.8854,1.8814,1.8821,1.8878,1.8874,1.9047,1.9074,1.8949,1.895,1.8951,0,1.7614,1.7685,1.78,1.7857,1.7911,1.8003,1.8066,1.8126,1.8191,1.8302,1.836,1.8466,1.8555,1.8722,1.8798,1.8901,1.8915,1.8968,1.8931,1.8916,1.8921,1.8918,1.8927,1.8976,1.8977,1.8977,1.8978,0,1.7724,1.7752,1.784,1.7941,1.8014,1.8097,1.8179,1.8224,1.8299,1.837,1.8477,1.8546,1.8682,1.879,1.89,1.8958,1.8983,1.8988,1.9009,1.8998,1.8974,1.8993,1.8836,1.8985,1.8985,1.8984,1.8984,1.8983,1.7796,1.7862,1.7954,1.8052,1.8119,1.8195,1.8267,1.8329,1.8419,1.8534,1.8564,1.8677,1.877,1.892,1.898,1.9071,1.9065,1.9093,1.9101,1.9108,1.9112,1.8955,1.9091,1.9091,1.9091,1.9091,1.9091,0,1.7912,1.7972,1.8061,1.8175,1.8253,1.8264,1.8356,1.8422,1.852,1.8603,1.869,1.8815,1.8919,1.9001,1.9109,1.9166,1.9181,1.9193,1.9192,1.9206,1.9109,1.9083,1.918,1.918,1.918,1.918,1.918,1.918,1.7982,1.8097,1.8135,1.8284,1.8344,1.8454,1.8506,1.8577,1.8644,1.8781,1.8867,1.8919,1.9004,1.9118,1.9215,1.9237,1.9278,1.9289,1.9314,1.9222,1.9213,1.9203,1.9179,1.9296,1.9296,1.9404,1.9405,1.9406]}]]